Adana/Incirlik, Turkey

12:54 AM +03 on January 18, 2017 (GMT +0300)
Incirlik Air Base

Weather History for LTAG - December, 2013

Change the Weather History Date:

Tuesday, December 3, 2013

  Actual Average Record
Temperature  
Mean Temperature 60 °F -  
Max Temperature 70 °F 62 °F 84 °F (2010)
Min Temperature 51 °F 45 °F 33 °F (2011)
Degree Days  
Heating Degree Days 4    
Growing Degree Days 10 (Base 50)    
Moisture  
Dew Point 37 °F    
Average Humidity 50    
Maximum Humidity 100    
Minimum Humidity 11    
Precipitation  
Precipitation 0.00 in - - ()
Sea Level Pressure  
Sea Level Pressure 29.97 in    
Wind  
Wind Speed 10 mph ()    
Max Wind Speed 29 mph    
Max Gust Speed -    
Visibility 6.3 miles    
Events Rain    
Averages and records for this station are not official NWS values.
T = Trace of Precipitation, MM = Missing Value Source: Averaged Metar Reports

Daily Weather History Graph

Daily Weather History Graph

Search for Another Location

Airport or City:

Trip Planner

Search our weather history database for the weather conditions in past years. The results will help you decide how hot, cold, wet, or windy it might be!

Date:

Astronomy

Dec. 03, 2013 Rise Set
Actual Time 6:34 AM EET 4:21 PM EET
Civil Twilight 6:06 AM EET 4:50 PM EET
Nautical Twilight 5:33 AM EET 5:22 PM EET
Astronomical Twilight 5:02 AM EET 5:53 PM EET
Moon 6:42 AM EET (12/3) 5:02 PM EET (12/3)
Length of Visible Light 10h 44m
Length of Day
9h 46m
New Moon, 0% of the Moon is Illuminated
Dec 3
New Moon
Dec 9
First Quarter
Dec 17
Full
Dec 25
Last Quarter
Jan 1
New

Hourly Weather History & Observations

Time (EET) Temp. Dew Point Humidity Pressure Visibility Wind Dir Wind Speed Gust Speed Precip Events Conditions
12:20 AM 53.6 °F 41.0 °F 62% 29.98 in - NE 12.7 mph - N/A   Clear
12:50 AM 57.2 °F 37.4 °F 48% 29.98 in - NNE 9.2 mph - N/A   Clear
1:20 AM 57.2 °F 41.0 °F 55% 29.98 in - SSE 3.5 mph - N/A   Clear
1:50 AM 53.6 °F 44.6 °F 72% 30.01 in - North 6.9 mph - N/A   Clear
2:00 AM 54 °F 45 °F 62% 30.00 in 12 mi North 6.9 mph - -   Mostly Cloudy
2:20 AM 53.6 °F 44.6 °F 72% 29.98 in - NE 9.2 mph - N/A   Clear
2:50 AM 53.6 °F 46.4 °F 77% 29.98 in - WNW 4.6 mph - N/A   Clear
3:03 AM 53.6 °F 46.4 °F 77% 30.01 in 6.2 mi WSW 4.6 mph - N/A Rain Light Rain Showers
3:20 AM 53.6 °F 46.4 °F 77% 29.98 in 6.2 mi North 8.1 mph - N/A Rain Light Rain Showers
3:50 AM 51.8 °F 50.0 °F 94% 29.98 in 6.2 mi NNW 9.2 mph - N/A Rain Light Rain Showers
4:20 AM 51.8 °F 50.0 °F 94% 29.95 in 6.2 mi ENE 10.4 mph - N/A Rain Light Rain Showers
4:50 AM 51.8 °F 51.8 °F 100% 29.95 in 6.2 mi NW 6.9 mph - N/A   Mostly Cloudy
5:00 AM 52 °F 51 °F 95% 29.97 in 6 mi NW 6.9 mph - - Rain Light Rain Showers
5:20 AM 51.8 °F 48.2 °F 88% 29.95 in 6.2 mi North 6.9 mph - N/A   Mostly Cloudy
5:50 AM 51.8 °F 50.0 °F 94% 29.98 in 6.2 mi North 5.8 mph - N/A   Mostly Cloudy
6:20 AM 51.8 °F 48.2 °F 88% 29.98 in 6.2 mi NE 9.2 mph - N/A   Mostly Cloudy
6:50 AM 53.6 °F 46.4 °F 77% 29.98 in 6.2 mi North 6.9 mph - N/A   Mostly Cloudy
7:20 AM 53.6 °F 48.2 °F 82% 30.01 in 6.2 mi SW 3.5 mph - N/A   Mostly Cloudy
7:50 AM 53.6 °F 50.0 °F 88% 30.01 in 6.2 mi NW 3.5 mph - N/A   Mostly Cloudy
8:00 AM 53 °F 49 °F 84% 30.01 in 6 mi NW 3.5 mph - -   Partly Cloudy
8:20 AM 55.4 °F 51.8 °F 88% 30.01 in 6.2 mi NW 5.8 mph - N/A   Mostly Cloudy
8:50 AM 57.2 °F 48.2 °F 72% 30.01 in 6.2 mi North 4.6 mph - N/A   Mostly Cloudy
9:20 AM 59.0 °F 48.2 °F 67% 30.01 in 6.2 mi NNW 9.2 mph - N/A   Mostly Cloudy
9:50 AM 60.8 °F 48.2 °F 63% 30.01 in 6.2 mi NNE 5.8 mph - N/A   Mostly Cloudy
10:20 AM 62.6 °F 48.2 °F 59% 30.01 in 6.2 mi NE 5.8 mph - N/A   Mostly Cloudy
10:50 AM 64.4 °F 46.4 °F 52% 29.98 in 6.2 mi ENE 9.2 mph - N/A   Mostly Cloudy
11:00 AM 65 °F 46 °F 39% 29.99 in 6 mi ENE 9.2 mph - -   Partly Cloudy
11:20 AM 68.0 °F 44.6 °F 43% 29.98 in 6.2 mi NE 13.8 mph - N/A   Mostly Cloudy
11:50 AM 68.0 °F 41.0 °F 37% 29.95 in 6.2 mi NE 10.4 mph - N/A   Mostly Cloudy
12:20 PM 69.8 °F 41.0 °F 35% 29.95 in 6.2 mi ENE 15.0 mph - N/A   Mostly Cloudy
12:50 PM 69.8 °F 41.0 °F 35% 29.95 in 6.2 mi ENE 17.3 mph - N/A   Mostly Cloudy
1:20 PM 68.0 °F 41.0 °F 37% 29.95 in 6.2 mi ENE 17.3 mph - N/A   Mostly Cloudy
1:50 PM 68.0 °F 39.2 °F 35% 29.95 in 6.2 mi ENE 15.0 mph - N/A   Mostly Cloudy
2:00 PM 68 °F 41 °F 26% 29.94 in 6 mi ENE 15.0 mph - -   Scattered Clouds
2:20 PM 66.2 °F 37.4 °F 35% 29.95 in 6.2 mi NE 15.0 mph - N/A   Mostly Cloudy
2:50 PM 66.2 °F 37.4 °F 35% 29.95 in 6.2 mi NNE 16.1 mph - N/A   Mostly Cloudy
3:20 PM 64.4 °F 35.6 °F 34% 29.95 in 6.2 mi NNE 16.1 mph - N/A   Mostly Cloudy
3:50 PM 60.8 °F 33.8 °F 36% 29.95 in 6.2 mi NNE 12.7 mph - N/A   Mostly Cloudy
4:20 PM 60.8 °F 28.4 °F 29% 29.95 in 6.2 mi NE 18.4 mph - N/A   Mostly Cloudy
4:50 PM 60.8 °F 24.8 °F 25% 29.95 in 6.2 mi NNE 23.0 mph - N/A   Mostly Cloudy
5:00 PM 61 °F 25 °F 14% 29.94 in 6 mi NNE 23.0 mph - -   Mostly Cloudy
5:20 PM 60.8 °F 24.8 °F 25% 29.95 in 6.2 mi NNE 23.0 mph - N/A   Mostly Cloudy
5:50 PM 60.8 °F 23.0 °F 23% 29.95 in 6.2 mi NNE 23.0 mph - N/A   Mostly Cloudy
6:20 PM 59.0 °F 23.0 °F 25% 29.95 in 6.2 mi NNE 18.4 mph - N/A   Mostly Cloudy
6:50 PM 59.0 °F 24.8 °F 27% 29.95 in 6.2 mi NNE 18.4 mph - N/A   Mostly Cloudy
7:20 PM 59.0 °F 23.0 °F 25% 29.95 in 6.2 mi NNE 21.9 mph - N/A   Mostly Cloudy
7:50 PM 59.0 °F 23.0 °F 25% 29.95 in 6.2 mi NNE 19.6 mph - N/A   Mostly Cloudy
8:00 PM 60 °F 22 °F 13% 29.97 in 6 mi NNE 19.6 mph - -   Partly Cloudy
8:20 PM 59.0 °F 23.0 °F 25% 29.95 in 6.2 mi NNE 28.8 mph - N/A   Mostly Cloudy
8:50 PM 59.0 °F 23.0 °F 25% 29.98 in 6.2 mi NNE 20.7 mph - N/A   Mostly Cloudy
9:20 PM 59.0 °F 19.4 °F 22% 29.98 in 6.2 mi NNE 18.4 mph - N/A   Mostly Cloudy
9:50 PM 59.0 °F 19.4 °F 22% 29.98 in 6.2 mi NNE 23.0 mph - N/A   Mostly Cloudy
10:20 PM 59.0 °F 19.4 °F 22% 29.98 in 6.2 mi NNE 20.7 mph - N/A   Mostly Cloudy
10:50 PM 57.2 °F 19.4 °F 23% 29.98 in 6.2 mi NNE 16.1 mph - N/A   Mostly Cloudy
11:00 PM 58 °F 18 °F 11% 29.97 in 6 mi NNE 16.1 mph - -   Partly Cloudy
11:20 PM 57.2 °F 17.6 °F 21% 29.98 in 6.2 mi NNE 17.3 mph - N/A   Mostly Cloudy
11:50 PM 57.2 °F 15.8 °F 20% 29.98 in 6.2 mi NNE 17.3 mph - N/A   Mostly Cloudy